Flag for Germany Weather past 2 weeks in Winsen (Luhe), Lower Saxony, Germany

Now
37 °F

Light rain. Partly cloudy.


Feels Like: 30 °F
Forecast: 37 / 43 °F
Wind: 12 mph from South

Location: Hamburg-Finkenwerder

Current Time: Mar 31, 2015 at 8:01:49 AM

Latest Report: Mar 31, 2015 at 7:20 AM


Visibility: 4 mi

Pressure: 29.00 "Hg

Humidity: 100%

Dew point: 37 °F

Location of Winsen (Luhe)Location

Historic Weather in Winsen (Luhe) — Graph

°F

Winsen (Luhe) temperature yesterday

Maximum temperature yesterday: 45 °F (at 1:50 PM)
Minimum temperature yesterday: 39 °F (at 7:20 AM)
Average temperature yesterday: 43 °F

Past Weeks' High & Low Weather Summary

 TemperatureHumidityPressure
High59 °F (Mar 18, 4:20 PM)100% (Mar 20, 5:20 AM)30.42 "Hg (Mar 20, 5:20 AM)
Low30 °F (Mar 20, 5:20 AM)27% (Mar 19, 2:50 PM)29.00 "Hg (Mar 31, 6:50 AM)
Average46 °F75%29.99 "Hg
* Reported Mar 16 5:20 AM — Mar 31 6:50 AM, Winsen (Luhe), Weather by CustomWeather, © 2015

Note: Actual official high and low records may vary slightly from our data, if they occured in-between our weather recording intervals... More about our weather records

Advertising

Winsen (Luhe) weather history for previous 24 hours

 ConditionsComfort  
Time TempWeatherWind HumidityBarometerVisibility
6:50 AM
Tue, Mar 31
37 °FRain. Partly cloudy.15 mph100%29.00 "Hg4 mi
6:20 AM36 °FLight rain. Partly cloudy.12 mph100%29.06 "Hg4 mi
5:50 AM36 °FLight rain. Fog.15 mph100%29.09 "Hg3 mi
7:50 PM
Mon, Mar 30
43 °FPartly sunny.22 mph76%29.62 "HgN/A
7:20 PM43 °FPartly sunny.22 mph76%29.59 "HgN/A
6:50 PM43 °FScattered clouds.26 mph81%29.59 "HgN/A
6:20 PM43 °FSprinkles. Partly sunny.37 mph81%29.56 "HgN/A
5:50 PM45 °FPartly sunny.29 mph71%29.53 "HgN/A
5:20 PM45 °FPartly sunny.35 mph76%29.53 "HgN/A
4:50 PM45 °FPartly sunny.29 mph71%29.50 "HgN/A
4:20 PM45 °FPartly sunny.29 mph76%29.47 "HgN/A
3:50 PM45 °FBroken clouds.36 mph76%29.45 "HgN/A
3:20 PM45 °FBroken clouds.29 mph81%29.45 "HgN/A
2:51 PM41 °FScattered showers. Partly sunny.32 mph87%29.45 "HgN/A
2:20 PM45 °FPartly sunny.32 mph81%29.42 "HgN/A
1:50 PM45 °FBroken clouds.32 mph81%29.39 "HgN/A
1:20 PM43 °FBroken clouds.35 mph93%29.36 "HgN/A
12:50 PM43 °FSprinkles. Partly sunny.31 mph93%29.33 "HgN/A
12:20 PM43 °FRain showers. Broken clouds.38 mph93%29.30 "HgN/A
11:50 AM43 °FLight rain. Broken clouds.31 mph100%29.30 "HgN/A
11:20 AM43 °FLight rain. Partly sunny.24 mph100%29.27 "HgN/A
10:50 AM43 °FLight rain. Partly sunny.24 mph100%29.24 "Hg6 mi
10:20 AM43 °FRain. Partly sunny.21 mph93%29.24 "HgN/A
9:50 AM43 °FScattered showers. Partly sunny.22 mph93%29.21 "HgN/A
9:20 AM41 °FScattered showers. Partly sunny.22 mph100%29.21 "HgN/A
8:50 AM41 °FScattered showers. Broken clouds.25 mph93%29.21 "HgN/A
8:20 AM41 °FSprinkles. Partly sunny.18 mph93%29.21 "HgN/A
Weather by CustomWeather, © 2015

See weather overviewHow to use our weather pages